Location: Grambois
(43.7619°N, 5.5873°E)
Time: 09:27:21
(UTC+00:00)

BREEZE-M DEB (TANK) - Pass Details

Date: 07 October 2020
Orbit: 333 x 12040 km, 49.7° (Epoch: 22 October)

Event Time Altitude Azimuth Distance (km) Brightness Sun altitude
Rises 23:01:53 0° 115° (ESE) 16,404 9.4 -51.9°
Reaches altitude 10° 23:42:27 10° 94° (E) 16,056 9.5 -52.0°
Maximum altitude 23:59:24 11° 83° (E) 15,198 9.5 -51.5°
Drops below altitude 10° 00:14:02 10° 73° (ENE) 14,185 9.4 -50.7°
Sets 00:37:42 0° 53° (NE) 12,296 9.5 -49.0°
